Location: Austin
(30.3000°N, 97.7500°W)
Time: 00:37:32
(UTC-05:00)

Tsikada Rocket - Pass Details

Date: 15 May 2024
Orbit: 958 x 1008 km, 82.9° (Epoch: 29 May)

Event Time Altitude Azimuth Distance (km) Brightness Sun altitude
Exits shadow 22:57:33 84° 160° (SSE) 969 3.8 -28.8°
Maximum altitude 22:57:45 88° 96° (E) 965 3.8 -28.8°
Drops below altitude 10° 23:03:57 10° 6° (N) 2,706 6.8 -29.7°
Sets 23:06:28 0° 6° (N) 3,662 7.6 -30.0°
